,,,PA_Meas_PMT16A,,PR_Meas_QMR101_102,,RH_Meas_QMH101,,SR_Meas_QMS101,,TA_Meas_QMH101,,GenWind,,GenWind,
date,time,status,PA,status,PR,status,RH,status,SR,status,TA,status,DirAvg,status,SpdAvg,
2010-01-08, 00:00:04,VALID,1010.98,VALID,0,VALID,22.496,VALID,0,VALID,23.8286,VALID,71,VALID,0.775,
2010-01-08, 00:01:04,VALID,1010.98,VALID,0,VALID,22.5417,VALID,0,VALID,23.8286,VALID,82,VALID,0.874219,
2010-01-08, 00:02:04,VALID,1010.99,VALID,0,VALID,22.5036,VALID,0,VALID,23.8286,VALID,90,VALID,0.58125,
2010-01-08, 00:03:04,VALID,1010.96,VALID,0,VALID,22.4807,VALID,0.105969,VALID,23.8304,VALID,91,VALID,1.22148,
2010-01-08, 00:04:04,VALID,1010.95,VALID,0,VALID,22.5112,VALID,0.105969,VALID,23.8499,VALID,81,VALID,0.704297,
2010-01-08, 00:05:04,VALID,1010.93,VALID,0,VALID,22.4883,VALID,0.105969,VALID,23.8286,VALID,96,VALID,1.33789,
2010-01-08, 00:06:04,VALID,1010.92,VALID,0,VALID,22.4883,VALID,0,VALID,23.8109,VALID,88,VALID,1.08477,
2010-01-08, 00:07:04,VALID,1010.89,VALID,0,VALID,22.4655,VALID,0.105969,VALID,23.7896,VALID,74,VALID,1.19844,
2010-01-08, 00:08:04,VALID,1010.9,VALID,0,VALID,22.3587,VALID,0.105969,VALID,23.8109,VALID,72,VALID,1.08008,
2010-01-08, 00:09:04,VALID,1010.89,VALID,0,VALID,22.5036,VALID,0,VALID,23.7896,VALID,91,VALID,1.18281,
2010-01-08, 00:10:04,VALID,1010.86,VALID,0,VALID,22.3892,VALID,0,VALID,23.7914,VALID,90,VALID,0.889453,
2010-01-08, 00:11:04,VALID,1010.88,VALID,0,VALID,22.4197,VALID,0.105969,VALID,23.7896,VALID,89,VALID,1.22617,
2010-01-08, 00:12:04,VALID,1010.83,VALID,0,VALID,22.3511,VALID,0,VALID,23.7896,VALID,120,VALID,1.49063,
2010-01-08, 00:13:04,VALID,1010.82,VALID,0,VALID,22.3816,VALID,0.105969,VALID,23.7701,VALID,84,VALID,1.06992,
2010-01-08, 00:14:04,VALID,1010.81,VALID,0,VALID,22.4807,VALID,0.105969,VALID,23.8109,VALID,100,VALID,1.225,
2010-01-08, 00:15:04,VALID,1010.78,VALID,0,VALID,22.4273,VALID,0,VALID,23.7914,VALID,79,VALID,1.29648,
2010-01-08, 00:16:04,VALID,1010.78,VALID,0,VALID,22.435,VALID,0,VALID,23.7896,VALID,93,VALID,0.623828,
2010-01-08, 00:17:04,VALID,1010.77,VALID,0,VALID,22.313,VALID,0,VALID,23.7914,VALID,85,VALID,1.07422,
2010-01-08, 00:18:04,VALID,1010.77,VALID,0,VALID,22.2748,VALID,0,VALID,23.7896,VALID,100,VALID,1.21992,
2010-01-08, 00:19:04,VALID,1010.77,VALID,0,VALID,22.313,VALID,0,VALID,23.7701,VALID,100,VALID,1.83047,
2010-01-08, 00:20:04,VALID,1010.76,VALID,0,VALID,22.2672,VALID,0,VALID,23.7914,VALID,77,VALID,1.15625,
2010-01-08, 00:21:04,VALID,1010.74,VALID,0,VALID,22.2214,VALID,0,VALID,23.7701,VALID,110,VALID,1.36484,
2010-01-08, 00:22:04,VALID,1010.7,VALID,0,VALID,22.2748,VALID,0,VALID,23.7701,VALID,89,VALID,1.18711,
2010-01-08, 00:23:04,VALID,1010.73,VALID,0,VALID,22.2062,VALID,0,VALID,23.7914,VALID,95,VALID,0.763672,
2010-01-08, 00:24:04,VALID,1010.7,VALID,0,VALID,22.1681,VALID,0,VALID,23.7701,VALID,98,VALID,0.762109,
2010-01-08, 00:25:04,VALID,1010.7,VALID,0,VALID,22.1528,VALID,0.105969,VALID,23.7507,VALID,65,VALID,1.15859,
2010-01-08, 00:26:04,VALID,1010.7,VALID,0,VALID,22.1681,VALID,0,VALID,23.7525,VALID,78,VALID,1.34844,
2010-01-08, 00:27:04,VALID,1010.66,VALID,0,VALID,22.1223,VALID,0,VALID,23.7525,VALID,77,VALID,1.48281,
2010-01-08, 00:28:04,VALID,1010.66,VALID,0,VALID,22.0537,VALID,0,VALID,23.733,VALID,85,VALID,1.325,
2010-01-08, 00:29:04,VALID,1010.67,VALID,0,VALID,22.0766,VALID,0,VALID,23.733,VALID,85,VALID,1.15391,
2010-01-08, 00:30:04,VALID,1010.66,VALID,0,VALID,22.2291,VALID,0,VALID,23.7117,VALID,80,VALID,0.719922,
2010-01-08, 00:31:04,VALID,1010.64,VALID,0,VALID,22.1833,VALID,0,VALID,23.7117,VALID,73,VALID,0.507422,
2010-01-08, 00:32:04,VALID,1010.61,VALID,0,VALID,22.0613,VALID,0.105969,VALID,23.6922,VALID,60,VALID,0.782422,
2010-01-08, 00:33:04,VALID,1010.62,VALID,0,VALID,22.1071,VALID,0,VALID,23.694,VALID,67,VALID,0.492578,
2010-01-08, 00:34:04,VALID,1010.58,VALID,0,VALID,22.0842,VALID,0,VALID,23.6745,VALID,94,VALID,1.34336,
2010-01-08, 00:35:04,VALID,1010.58,VALID,0,VALID,22.0766,VALID,0,VALID,23.694,VALID,58,VALID,0.968359,
2010-01-08, 00:36:04,VALID,1010.56,VALID,0,VALID,22.0613,VALID,0,VALID,23.6745,VALID,77,VALID,0.55625,
2010-01-08, 00:37:04,VALID,1010.53,VALID,0,VALID,22.0994,VALID,0,VALID,23.6745,VALID,83,VALID,0.644141,
2010-01-08, 00:38:04,VALID,1010.54,VALID,0,VALID,21.9469,VALID,0,VALID,23.6745,VALID,113,VALID,0.769531,
2010-01-08, 00:39:04,VALID,1010.54,VALID,0,VALID,22.1223,VALID,0,VALID,23.6745,VALID,90,VALID,0.816406,
2010-01-08, 00:40:04,VALID,1010.54,VALID,0,VALID,22.0689,VALID,0,VALID,23.6532,VALID,81,VALID,0.701172,
2010-01-08, 00:41:04,VALID,1010.55,VALID,0,VALID,22.0689,VALID,0,VALID,23.6338,VALID,100,VALID,0.879297,
2010-01-08, 00:42:04,VALID,1010.55,VALID,0,VALID,22.0689,VALID,0,VALID,23.655,VALID,82,VALID,0.820313,
2010-01-08, 00:43:04,VALID,1010.52,VALID,0,VALID,22.0613,VALID,0,VALID,23.6338,VALID,98,VALID,0.550781,
2010-01-08, 00:44:04,VALID,1010.53,VALID,0,VALID,22.0842,VALID,0,VALID,23.6356,VALID,81,VALID,0.80625,
2010-01-08, 00:45:04,VALID,1010.51,VALID,0,VALID,22.0918,VALID,0,VALID,23.6143,VALID,95,VALID,0.724219,
2010-01-08, 00:46:04,VALID,1010.48,VALID,0,VALID,22.0232,VALID,0,VALID,23.6143,VALID,106,VALID,0.937109,
2010-01-08, 00:47:04,VALID,1010.49,VALID,0,VALID,22.0308,VALID,0,VALID,23.6356,VALID,72,VALID,0.507031,
2010-01-08, 00:48:04,VALID,1010.45,VALID,0,VALID,22.1071,VALID,0,VALID,23.6356,VALID,94,VALID,0.947656,
2010-01-08, 00:49:04,VALID,1010.43,VALID,0,VALID,22.0461,VALID,0,VALID,23.6161,VALID,102,VALID,0.748828,
2010-01-08, 00:50:04,VALID,1010.41,VALID,0,VALID,21.9469,VALID,0,VALID,23.6356,VALID,100,VALID,0.435156,
2010-01-08, 00:51:04,VALID,1010.39,VALID,0,VALID,22.0384,VALID,0,VALID,23.6356,VALID,82,VALID,0.645312,
2010-01-08, 00:52:04,VALID,1010.41,VALID,0,VALID,21.9622,VALID,0,VALID,23.6356,VALID,82,VALID,0.377734,
2010-01-08, 00:53:04,VALID,1010.39,VALID,0,VALID,21.8783,VALID,0,VALID,23.6356,VALID,74,VALID,0.0191406,
2010-01-08, 00:54:04,VALID,1010.41,VALID,0,VALID,21.9164,VALID,0,VALID,23.6356,VALID,73,VALID,0,
2010-01-08, 00:55:04,VALID,1010.37,VALID,0,VALID,21.8783,VALID,0,VALID,23.6161,VALID,348,VALID,0.246094,
2010-01-08, 00:56:04,VALID,1010.38,VALID,0,VALID,21.9012,VALID,0,VALID,23.5948,VALID,349,VALID,0.161719,
2010-01-08, 00:57:04,VALID,1010.36,VALID,0,VALID,21.9012,VALID,0,VALID,23.6356,VALID,39,VALID,0.460547,
2010-01-08, 00:58:04,VALID,1010.34,VALID,0,VALID,21.8859,VALID,0.105969,VALID,23.6161,VALID,58,VALID,0.441797,
2010-01-08, 00:59:04,VALID,1010.34,VALID,0,VALID,21.8325,VALID,0,VALID,23.6161,VALID,88,VALID,0.35,
2010-01-08, 01:00:04,VALID,1010.35,VALID,0,VALID,21.8859,VALID,0,VALID,23.6161,VALID,88,VALID,0.05625,
2010-01-08, 01:01:04,VALID,1010.31,VALID,0,VALID,21.741,VALID,0,VALID,23.5948,VALID,88,VALID,0.319141,
2010-01-08, 01:02:04,VALID,1010.32,VALID,0,VALID,21.7334,VALID,0,VALID,23.6161,VALID,74,VALID,0.734766,
2010-01-08, 01:03:04,VALID,1010.32,VALID,0,VALID,21.7792,VALID,0,VALID,23.6161,VALID,81,VALID,0.539453,
2010-01-08, 01:04:04,VALID,1010.35,VALID,0,VALID,21.7029,VALID,0,VALID,23.6161,VALID,81,VALID,0.236719,
2010-01-08, 01:05:04,VALID,1010.34,VALID,0,VALID,21.6419,VALID,0,VALID,23.6356,VALID,111,VALID,0.608984,
2010-01-08, 01:06:04,VALID,1010.32,VALID,0,VALID,21.6648,VALID,0,VALID,23.655,VALID,110,VALID,0.429297,
2010-01-08, 01:07:04,VALID,1010.29,VALID,0,VALID,21.7486,VALID,0,VALID,23.6338,VALID,95,VALID,0.406641,
2010-01-08, 01:08:04,VALID,1010.28,VALID,0,VALID,21.6266,VALID,0,VALID,23.6338,VALID,95,VALID,0.00585938,
2010-01-08, 01:09:04,VALID,1010.26,VALID,0,VALID,21.5656,VALID,0,VALID,23.6338,VALID,95,VALID,0,
2010-01-08, 01:10:04,VALID,1010.28,VALID,0,VALID,21.5885,VALID,0,VALID,23.655,VALID,95,VALID,0,
2010-01-08, 01:11:04,VALID,1010.29,VALID,0,VALID,21.5504,VALID,0,VALID,23.6338,VALID,97,VALID,0,
2010-01-08, 01:12:04,VALID,1010.26,VALID,0,VALID,21.5046,VALID,0.105969,VALID,23.6532,VALID,97,VALID,0,
2010-01-08, 01:13:04,VALID,1010.24,VALID,0,VALID,21.375,VALID,0.105969,VALID,23.6532,VALID,106,VALID,0,
2010-01-08, 01:14:04,VALID,1010.25,VALID,0,VALID,21.497,VALID,0,VALID,23.6727,VALID,106,VALID,0,
2010-01-08, 01:15:04,VALID,1010.22,VALID,0,VALID,21.3902,VALID,0,VALID,23.6727,VALID,127,VALID,0,
2010-01-08, 01:16:04,VALID,1010.22,VALID,0,VALID,21.3369,VALID,0.105969,VALID,23.6727,VALID,127,VALID,0,
2010-01-08, 01:17:04,VALID,1010.2,VALID,0,VALID,21.2453,VALID,0.105969,VALID,23.6727,VALID,117,VALID,0.476563,
2010-01-08, 01:18:04,VALID,1010.17,VALID,0,VALID,21.3064,VALID,0.105969,VALID,23.6727,VALID,134,VALID,0.488281,
2010-01-08, 01:19:04,VALID,1010.14,VALID,0,VALID,21.253,VALID,0,VALID,23.6532,VALID,152,VALID,0.569531,
2010-01-08, 01:20:04,VALID,1010.12,VALID,0,VALID,21.3216,VALID,0.105969,VALID,23.6338,VALID,156,VALID,0.510156,
2010-01-08, 01:21:04,VALID,1010.09,VALID,0,VALID,21.2072,VALID,0.105969,VALID,23.6338,VALID,156,VALID,0.553906,
2010-01-08, 01:22:04,VALID,1010.09,VALID,0,VALID,21.1996,VALID,0.105969,VALID,23.6161,VALID,163,VALID,0.59375,
2010-01-08, 01:23:04,VALID,1010.06,VALID,0,VALID,21.1615,VALID,0,VALID,23.5753,VALID,152,VALID,0.421484,
2010-01-08, 01:24:04,VALID,1010.04,VALID,0,VALID,21.192,VALID,0,VALID,23.5753,VALID,152,VALID,0.351953,
2010-01-08, 01:25:04,VALID,1010.01,VALID,0,VALID,21.253,VALID,0,VALID,23.5753,VALID,152,VALID,0.326172,
2010-01-08, 01:26:04,VALID,1009.98,VALID,0,VALID,21.1767,VALID,0,VALID,23.5753,VALID,150,VALID,0.682031,
2010-01-08, 01:27:04,VALID,1009.99,VALID,0,VALID,21.2377,VALID,0,VALID,23.5771,VALID,132,VALID,0.596094,
2010-01-08, 01:28:04,VALID,1009.96,VALID,0,VALID,21.1691,VALID,0,VALID,23.5558,VALID,120,VALID,0.820313,
2010-01-08, 01:29:04,VALID,1010,VALID,0,VALID,21.3064,VALID,0.105969,VALID,23.5558,VALID,117,VALID,0.872266,
2010-01-08, 01:30:04,VALID,1009.96,VALID,0,VALID,21.1843,VALID,0,VALID,23.5753,VALID,95,VALID,0.910156,
2010-01-08, 01:31:04,VALID,1009.99,VALID,0,VALID,21.131,VALID,0.105969,VALID,23.6161,VALID,110,VALID,0.961328,
2010-01-08, 01:32:04,VALID,1009.98,VALID,0,VALID,21.0776,VALID,0,VALID,23.6161,VALID,103,VALID,1.0332,
2010-01-08, 01:33:04,VALID,1009.96,VALID,0,VALID,21.0318,VALID,0,VALID,23.6161,VALID,115,VALID,1.14883,
2010-01-08, 01:34:04,VALID,1009.95,VALID,0,VALID,21.0471,VALID,0,VALID,23.6161,VALID,97,VALID,0.923437,
2010-01-08, 01:35:04,VALID,1009.94,VALID,0,VALID,20.9784,VALID,0,VALID,23.5753,VALID,111,VALID,1.09492,
2010-01-08, 01:36:04,VALID,1009.93,VALID,0,VALID,21.1005,VALID,0,VALID,23.5753,VALID,102,VALID,0.601172,
2010-01-08, 01:37:04,VALID,1009.91,VALID,0,VALID,20.9098,VALID,0,VALID,23.5948,VALID,108,VALID,0.620313,
2010-01-08, 01:38:04,VALID,1009.9,VALID,0,VALID,20.8869,VALID,0,VALID,23.5753,VALID,118,VALID,0.416016,
2010-01-08, 01:39:04,VALID,1009.89,VALID,0,VALID,20.8641,VALID,0,VALID,23.5753,VALID,127,VALID,0.380859,
2010-01-08, 01:40:04,VALID,1009.85,VALID,0,VALID,20.8641,VALID,0,VALID,23.5753,VALID,112,VALID,0.510156,
2010-01-08, 01:41:04,VALID,1009.86,VALID,0,VALID,20.8336,VALID,0,VALID,23.5753,VALID,114,VALID,0.403516,
2010-01-08, 01:42:04,VALID,1009.83,VALID,0,VALID,20.7954,VALID,0,VALID,23.5966,VALID,126,VALID,0.222656,
2010-01-08, 01:43:04,VALID,1009.82,VALID,0,VALID,20.8412,VALID,0,VALID,23.5558,VALID,128,VALID,0.236719,
2010-01-08, 01:44:04,VALID,1009.82,VALID,0,VALID,20.8336,VALID,0,VALID,23.5576,VALID,128,VALID,0.411328,
2010-01-08, 01:45:04,VALID,1009.81,VALID,0,VALID,20.8183,VALID,0,VALID,23.5381,VALID,128,VALID,0.436328,
2010-01-08, 01:46:04,VALID,1009.83,VALID,0,VALID,20.8259,VALID,0.105969,VALID,23.5381,VALID,128,VALID,0.608203,
2010-01-08, 01:47:04,VALID,1009.81,VALID,0,VALID,20.8564,VALID,0,VALID,23.4974,VALID,130,VALID,0.685938,
2010-01-08, 01:48:04,VALID,1009.78,VALID,0,VALID,20.8717,VALID,0,VALID,23.5186,VALID,125,VALID,0.725781,
2010-01-08, 01:49:04,VALID,1009.79,VALID,0,VALID,20.7878,VALID,0.105969,VALID,23.4974,VALID,104,VALID,0.883203,
2010-01-08, 01:50:04,VALID,1009.76,VALID,0,VALID,20.9098,VALID,0,VALID,23.4974,VALID,104,VALID,0.433984,
2010-01-08, 01:51:04,VALID,1009.74,VALID,0,VALID,20.8031,VALID,0.105969,VALID,23.4974,VALID,127,VALID,0.481641,
2010-01-08, 01:52:04,VALID,1009.72,VALID,0,VALID,20.8793,VALID,0.105969,VALID,23.5186,VALID,132,VALID,0.714453,
2010-01-08, 01:53:04,VALID,1009.72,VALID,0,VALID,20.7726,VALID,0,VALID,23.4992,VALID,149,VALID,1.01719,
2010-01-08, 01:54:04,VALID,1009.69,VALID,0,VALID,20.7573,VALID,0,VALID,23.4797,VALID,139,VALID,0.358203,
2010-01-08, 01:55:04,VALID,1009.68,VALID,0,VALID,20.8564,VALID,0,VALID,23.4584,VALID,142,VALID,0.977344,
2010-01-08, 01:56:04,VALID,1009.66,VALID,0,VALID,20.7268,VALID,0.105969,VALID,23.4602,VALID,163,VALID,0.632031,
2010-01-08, 01:57:04,VALID,1009.66,VALID,0,VALID,20.8717,VALID,0,VALID,23.462,VALID,162,VALID,0.464844,
2010-01-08, 01:58:04,VALID,1009.63,VALID,0,VALID,20.6658,VALID,0,VALID,23.4212,VALID,162,VALID,0.671484,
2010-01-08, 01:59:04,VALID,1009.63,VALID,0,VALID,20.6887,VALID,0,VALID,23.4017,VALID,165,VALID,0.846094,
2010-01-08, 02:00:04,VALID,1009.62,VALID,0,VALID,20.6429,VALID,0,VALID,23.4017,VALID,140,VALID,0.615234,
2010-01-08, 02:01:04,VALID,1009.58,VALID,0,VALID,20.7039,VALID,0,VALID,23.4035,VALID,131,VALID,0.648438,
2010-01-08, 02:02:04,VALID,1009.57,VALID,0,VALID,20.8336,VALID,0,VALID,23.4017,VALID,119,VALID,0.719141,
2010-01-08, 02:03:04,VALID,1009.54,VALID,0,VALID,20.6505,VALID,0,VALID,23.4017,VALID,125,VALID,1.02266,
2010-01-08, 02:04:04,VALID,1009.52,VALID,0,VALID,20.8336,VALID,0,VALID,23.4035,VALID,142,VALID,1.11992,
2010-01-08, 02:05:04,VALID,1009.52,VALID,0,VALID,20.6048,VALID,0,VALID,23.4035,VALID,142,VALID,1.21523,
2010-01-08, 02:06:04,VALID,1009.48,VALID,0,VALID,20.7878,VALID,0,VALID,23.423,VALID,142,VALID,0.923437,
2010-01-08, 02:07:04,VALID,1009.5,VALID,0,VALID,20.6429,VALID,0,VALID,23.3823,VALID,156,VALID,0.898438,
2010-01-08, 02:08:04,VALID,1009.47,VALID,0,VALID,20.6582,VALID,0,VALID,23.4035,VALID,139,VALID,0.960547,
2010-01-08, 02:09:04,VALID,1009.48,VALID,0,VALID,20.5133,VALID,0,VALID,23.4035,VALID,136,VALID,0.695313,
2010-01-08, 02:10:04,VALID,1009.47,VALID,0,VALID,20.6734,VALID,0,VALID,23.4017,VALID,124,VALID,0.61875,
2010-01-08, 02:11:04,VALID,1009.47,VALID,0,VALID,20.681,VALID,0,VALID,23.4035,VALID,146,VALID,0.848437,
2010-01-08, 02:12:04,VALID,1009.45,VALID,0,VALID,20.498,VALID,0,VALID,23.3823,VALID,146,VALID,0.687109,
2010-01-08, 02:13:04,VALID,1009.44,VALID,0,VALID,20.4828,VALID,0,VALID,23.3823,VALID,145,VALID,1.29492,
2010-01-08, 02:14:04,VALID,1009.42,VALID,0,VALID,20.4218,VALID,0,VALID,23.3823,VALID,143,VALID,0.864062,
2010-01-08, 02:15:04,VALID,1009.44,VALID,0,VALID,20.3455,VALID,0,VALID,23.4017,VALID,116,VALID,0.793359,
2010-01-08, 02:16:04,VALID,1009.42,VALID,0,VALID,20.5285,VALID,0,VALID,23.423,VALID,119,VALID,0.914844,
2010-01-08, 02:17:04,VALID,1009.43,VALID,0,VALID,20.4523,VALID,0,VALID,23.4212,VALID,157,VALID,0.789063,
2010-01-08, 02:18:04,VALID,1009.39,VALID,0,VALID,20.2159,VALID,0,VALID,23.4212,VALID,133,VALID,0.64375,
2010-01-08, 02:19:04,VALID,1009.41,VALID,0,VALID,20.2464,VALID,0,VALID,23.4212,VALID,129,VALID,0.798047,
2010-01-08, 02:20:04,VALID,1009.38,VALID,0,VALID,20.1472,VALID,0,VALID,23.4425,VALID,131,VALID,0.802734,
2010-01-08, 02:21:04,VALID,1009.36,VALID,0,VALID,20.1854,VALID,0,VALID,23.4815,VALID,126,VALID,1.25508,
2010-01-08, 02:22:04,VALID,1009.38,VALID,0,VALID,20.0481,VALID,0,VALID,23.4992,VALID,96,VALID,0.985937,
2010-01-08, 02:23:04,VALID,1009.41,VALID,0,VALID,20.1549,VALID,0,VALID,23.4797,VALID,111,VALID,0.904688,
2010-01-08, 02:24:04,VALID,1009.39,VALID,0,VALID,19.9718,VALID,0,VALID,23.4992,VALID,100,VALID,0.447656,
2010-01-08, 02:25:04,VALID,1009.41,VALID,0,VALID,20.0405,VALID,0,VALID,23.5399,VALID,146,VALID,0.513281,
2010-01-08, 02:26:04,VALID,1009.42,VALID,0,VALID,19.9261,VALID,0,VALID,23.5186,VALID,121,VALID,0.349609,
2010-01-08, 02:27:04,VALID,1009.44,VALID,0,VALID,19.888,VALID,0.105969,VALID,23.5576,VALID,111,VALID,0.850391,
2010-01-08, 02:28:04,VALID,1009.42,VALID,0,VALID,19.7812,VALID,0,VALID,23.5363,VALID,182,VALID,0.662891,
2010-01-08, 02:29:04,VALID,1009.44,VALID,0,VALID,19.5753,VALID,0.105969,VALID,23.5771,VALID,120,VALID,0.357422,
2010-01-08, 02:30:04,VALID,1009.47,VALID,0,VALID,19.5143,VALID,0,VALID,23.5363,VALID,165,VALID,0.541406,
2010-01-08, 02:31:04,VALID,1009.44,VALID,0,VALID,19.4228,VALID,0.105969,VALID,23.5576,VALID,166,VALID,0.132813,
2010-01-08, 02:32:04,VALID,1009.42,VALID,0,VALID,19.3542,VALID,0.105969,VALID,23.5576,VALID,126,VALID,0.274219,
2010-01-08, 02:33:04,VALID,1009.46,VALID,0,VALID,19.5067,VALID,0.105969,VALID,23.5363,VALID,156,VALID,0.541406,
2010-01-08, 02:34:04,VALID,1009.42,VALID,0,VALID,19.3923,VALID,0.105969,VALID,23.5576,VALID,194,VALID,1.0125,
2010-01-08, 02:35:04,VALID,1009.44,VALID,0,VALID,19.2322,VALID,0.105969,VALID,23.5381,VALID,162,VALID,0.851172,
2010-01-08, 02:36:04,VALID,1009.45,VALID,0,VALID,19.3694,VALID,0.105969,VALID,23.5381,VALID,163,VALID,0.775,
2010-01-08, 02:37:04,VALID,1009.45,VALID,0,VALID,19.255,VALID,0.105969,VALID,23.5186,VALID,163,VALID,0.439063,
2010-01-08, 02:38:04,VALID,1009.45,VALID,0,VALID,19.3618,VALID,0.105969,VALID,23.5169,VALID,163,VALID,0.146094,
2010-01-08, 02:39:04,VALID,1009.47,VALID,0,VALID,19.2779,VALID,0.105969,VALID,23.5381,VALID,163,VALID,0.392578,
2010-01-08, 02:40:04,VALID,1009.49,VALID,0,VALID,19.377,VALID,0.105969,VALID,23.4974,VALID,163,VALID,0.215625,
2010-01-08, 02:41:04,VALID,1009.5,VALID,0,VALID,19.3008,VALID,0,VALID,23.4974,VALID,159,VALID,0.529297,
2010-01-08, 02:42:04,VALID,1009.48,VALID,0,VALID,19.3237,VALID,0.105969,VALID,23.4992,VALID,156,VALID,0.307813,
2010-01-08, 02:43:04,VALID,1009.46,VALID,0,VALID,19.1559,VALID,0.105969,VALID,23.4974,VALID,177,VALID,0.498047,
2010-01-08, 02:44:04,VALID,1009.47,VALID,0,VALID,19.2703,VALID,0.105969,VALID,23.4992,VALID,177,VALID,0.452734,
2010-01-08, 02:45:04,VALID,1009.45,VALID,0,VALID,19.2932,VALID,0.105969,VALID,23.4779,VALID,155,VALID,0.549609,
2010-01-08, 02:46:04,VALID,1009.49,VALID,0,VALID,19.3084,VALID,0.105969,VALID,23.4797,VALID,142,VALID,0.604688,
2010-01-08, 02:47:04,VALID,1009.44,VALID,0,VALID,19.3237,VALID,0.105969,VALID,23.4584,VALID,142,VALID,0.312891,
2010-01-08, 02:48:04,VALID,1009.45,VALID,0,VALID,19.194,VALID,0.105969,VALID,23.4389,VALID,142,VALID,0.421875,
2010-01-08, 02:49:04,VALID,1009.44,VALID,0,VALID,19.2169,VALID,0.105969,VALID,23.4602,VALID,145,VALID,0.533594,
2010-01-08, 02:50:04,VALID,1009.46,VALID,0,VALID,19.1711,VALID,0.105969,VALID,23.4389,VALID,133,VALID,0.762109,
2010-01-08, 02:51:04,VALID,1009.47,VALID,0,VALID,19.1864,VALID,0.105969,VALID,23.4389,VALID,133,VALID,0.235156,
2010-01-08, 02:52:04,VALID,1009.47,VALID,0,VALID,19.2398,VALID,0,VALID,23.4584,VALID,132,VALID,0.777734,
2010-01-08, 02:53:04,VALID,1009.45,VALID,0,VALID,19.1406,VALID,0.105969,VALID,23.4584,VALID,144,VALID,0.694922,
2010-01-08, 02:54:04,VALID,1009.43,VALID,0,VALID,19.0796,VALID,0.105969,VALID,23.4779,VALID,144,VALID,0.413672,
2010-01-08, 02:55:04,VALID,1009.45,VALID,0,VALID,19.0415,VALID,0.105969,VALID,23.4797,VALID,150,VALID,0.20625,
2010-01-08, 02:56:04,VALID,1009.46,VALID,0,VALID,19.0034,VALID,0.105969,VALID,23.4797,VALID,150,VALID,0,
2010-01-08, 02:57:04,VALID,1009.46,VALID,0,VALID,19.0186,VALID,0,VALID,23.4815,VALID,150,VALID,0,
2010-01-08, 02:58:04,VALID,1009.45,VALID,0,VALID,18.95,VALID,0,VALID,23.4602,VALID,151,VALID,0,
2010-01-08, 02:59:04,VALID,1009.44,VALID,0,VALID,18.9576,VALID,0,VALID,23.462,VALID,159,VALID,0.307422,
2010-01-08, 03:00:04,VALID,1009.41,VALID,0,VALID,18.9424,VALID,0,VALID,23.4407,VALID,189,VALID,0.357031,
2010-01-08, 03:01:04,VALID,1009.44,VALID,0,VALID,18.9881,VALID,0,VALID,23.462,VALID,168,VALID,0.0414063,
2010-01-08, 03:02:04,VALID,1009.41,VALID,0,VALID,18.9652,VALID,0,VALID,23.4212,VALID,166,VALID,0.184766,
2010-01-08, 03:03:04,VALID,1009.4,VALID,0,VALID,18.9119,VALID,0,VALID,23.4212,VALID,166,VALID,0,
2010-01-08, 03:04:04,VALID,1009.39,VALID,0,VALID,18.8432,VALID,0,VALID,23.4425,VALID,156,VALID,0,
2010-01-08, 03:05:04,VALID,1009.37,VALID,0,VALID,18.8509,VALID,0,VALID,23.4017,VALID,159,VALID,0,
2010-01-08, 03:06:04,VALID,1009.39,VALID,0,VALID,18.828,VALID,0,VALID,23.423,VALID,159,VALID,0,
2010-01-08, 03:07:04,VALID,1009.38,VALID,0,VALID,18.7899,VALID,0,VALID,23.423,VALID,112,VALID,0,
2010-01-08, 03:08:04,VALID,1009.4,VALID,0,VALID,18.8432,VALID,0,VALID,23.4212,VALID,112,VALID,0.503906,
2010-01-08, 03:09:04,VALID,1009.39,VALID,0,VALID,18.7975,VALID,0,VALID,23.4407,VALID,117,VALID,0.30625,
2010-01-08, 03:10:04,VALID,1009.39,VALID,0,VALID,18.8204,VALID,0,VALID,23.4407,VALID,107,VALID,0.566406,
2010-01-08, 03:11:04,VALID,1009.41,VALID,0,VALID,18.6526,VALID,0,VALID,23.4815,VALID,86,VALID,0.759766,
2010-01-08, 03:12:04,VALID,1009.41,VALID,0,VALID,18.6221,VALID,0,VALID,23.4992,VALID,87,VALID,0.942969,
2010-01-08, 03:13:04,VALID,1009.45,VALID,0,VALID,18.5077,VALID,0,VALID,23.5186,VALID,83,VALID,0.809375,
2010-01-08, 03:14:04,VALID,1009.41,VALID,0,VALID,18.5306,VALID,0,VALID,23.5169,VALID,81,VALID,0.0667969,
2010-01-08, 03:15:04,VALID,1009.41,VALID,0,VALID,18.4848,VALID,0,VALID,23.5381,VALID,102,VALID,0,
2010-01-08, 03:16:04,VALID,1009.43,VALID,0,VALID,18.3857,VALID,0,VALID,23.5186,VALID,102,VALID,0,
2010-01-08, 03:17:04,VALID,1009.44,VALID,0,VALID,18.5001,VALID,0.105969,VALID,23.4974,VALID,52,VALID,0.519922,
2010-01-08, 03:18:04,VALID,1009.42,VALID,0,VALID,18.4619,VALID,0,VALID,23.5186,VALID,52,VALID,0.247266,
2010-01-08, 03:19:04,VALID,1009.42,VALID,0,VALID,18.3628,VALID,0,VALID,23.4992,VALID,52,VALID,0.289063,
2010-01-08, 03:20:04,VALID,1009.44,VALID,0,VALID,18.3247,VALID,0,VALID,23.4992,VALID,51,VALID,0.145313,
2010-01-08, 03:21:04,VALID,1009.45,VALID,0,VALID,18.2713,VALID,0,VALID,23.4797,VALID,43,VALID,0.280859,
2010-01-08, 03:22:04,VALID,1009.44,VALID,0,VALID,18.2027,VALID,0,VALID,23.4797,VALID,43,VALID,0,
2010-01-08, 03:23:04,VALID,1009.45,VALID,0,VALID,18.3171,VALID,0,VALID,23.4584,VALID,43,VALID,0,
2010-01-08, 03:24:04,VALID,1009.49,VALID,0,VALID,18.2256,VALID,0.105969,VALID,23.4584,VALID,43,VALID,0.00078125,
2010-01-08, 03:25:04,VALID,1009.43,VALID,0,VALID,18.1798,VALID,0.105969,VALID,23.4389,VALID,43,VALID,0.0605469,
2010-01-08, 03:26:04,VALID,1009.42,VALID,0,VALID,18.2408,VALID,0.105969,VALID,23.4407,VALID,43,VALID,0.251563,
2010-01-08, 03:27:04,VALID,1009.43,VALID,0,VALID,18.2484,VALID,0,VALID,23.4,VALID,43,VALID,0.341797,
2010-01-08, 03:28:04,VALID,1009.48,VALID,0,VALID,18.2789,VALID,0,VALID,23.4017,VALID,43,VALID,0.275781,
2010-01-08, 03:29:04,VALID,1009.41,VALID,0,VALID,18.2637,VALID,0,VALID,23.4017,VALID,43,VALID,0.110547,
2010-01-08, 03:30:04,VALID,1009.45,VALID,0,VALID,18.2332,VALID,0,VALID,23.3823,VALID,43,VALID,0.282031,
2010-01-08, 03:31:04,VALID,1009.45,VALID,0,VALID,18.1874,VALID,0,VALID,23.3823,VALID,43,VALID,0.316797,
2010-01-08, 03:32:04,VALID,1009.49,VALID,0,VALID,18.1264,VALID,0.105969,VALID,23.3433,VALID,43,VALID,0.3625,
2010-01-08, 03:33:04,VALID,1009.48,VALID,0,VALID,18.0959,VALID,0.105969,VALID,23.322,VALID,43,VALID,0.378125,
2010-01-08, 03:34:04,VALID,1009.5,VALID,0,VALID,18.0807,VALID,0.105969,VALID,23.3433,VALID,352,VALID,0.323047,
2010-01-08, 03:35:04,VALID,1009.49,VALID,0,VALID,18.0883,VALID,0,VALID,23.3026,VALID,340,VALID,0.383984,
2010-01-08, 03:36:04,VALID,1009.5,VALID,0,VALID,18.2256,VALID,0,VALID,23.3238,VALID,340,VALID,0.305078,
2010-01-08, 03:37:04,VALID,1009.49,VALID,0,VALID,18.0654,VALID,0,VALID,23.2831,VALID,340,VALID,0.226172,
2010-01-08, 03:38:04,VALID,1009.5,VALID,0,VALID,18.1264,VALID,0.105969,VALID,23.3043,VALID,340,VALID,0.148828,
2010-01-08, 03:39:04,VALID,1009.51,VALID,0,VALID,18.1264,VALID,0,VALID,23.2848,VALID,340,VALID,0.0671875,
2010-01-08, 03:40:04,VALID,1009.51,VALID,0,VALID,17.9968,VALID,0.105969,VALID,23.2848,VALID,340,VALID,0,
2010-01-08, 03:41:04,VALID,1009.5,VALID,0,VALID,17.951,VALID,0,VALID,23.2654,VALID,340,VALID,0,
2010-01-08, 03:42:04,VALID,1009.5,VALID,0,VALID,17.8976,VALID,0.105969,VALID,23.2459,VALID,340,VALID,0,